Pineville, WV

3:14 AM EST on November 17, 2019 (GMT -0500)
Pineville

Weather History for KI16 - October, 2019

Change the Weather History Date:

Monday, October 21, 2019

  Actual Average (WUND) Record (WUND)
Temperature  
Mean Temperature 65 °F -  
Max Temperature 79 °F - - (-1)
Min Temperature 51 °F - - (-1)
Growing Degree Days 15 (Base 50)    
Moisture  
Dew Point 56 °F    
Average Humidity 79    
Maximum Humidity 99    
Minimum Humidity 42    
Precipitation  
Precipitation 0.00 in - - ()
Sea Level Pressure  
Sea Level Pressure 30.02 in    
Wind  
Wind Speed - ()    
Max Wind Speed -    
Max Gust Speed -    
Visibility 9.1 miles    
Events Fog    
Averages and records for this station are not official NWS values.
T = Trace of Precipitation, MM = Missing Value Source: Averaged Metar Reports

Daily Weather History Graph

Daily Weather History Graph

Search for Another Location

Airport or City:

Astronomy

Oct. 21, 2019 Rise Set
Actual Time 7:39 AM EDT 6:41 PM EDT
Civil Twilight 7:13 AM EDT 7:07 PM EDT
Nautical Twilight 6:42 AM EDT 7:38 PM EDT
Astronomical Twilight 6:12 AM EDT 8:08 PM EDT
Moon No Moon Rise 2:52 PM EDT (10/21)
Length of Visible Light 11h 54m
Length of Day
11h 01m
Waning Gibbous, 48% of the Moon is Illuminated
Oct 21
Waning Gibbous
Oct 27
New
Nov 4
First Quarter
Nov 12
Full
Nov 19
Last Quarter

Hourly Weather History & Observations

Time (EDT) Temp. Dew Point Humidity Pressure Visibility Wind Dir Wind Speed Gust Speed Precip Events Conditions
12:15 AM 56.8 °F 56.3 °F 98% 30.08 in 0.2 mi North - - N/A Fog Fog
12:35 AM 56.7 °F 56.1 °F 98% 30.08 in 0.2 mi North - - N/A Fog Fog
12:55 AM 57.2 °F 56.3 °F 97% 30.08 in 0.2 mi North - - N/A Fog Fog
1:15 AM 57.0 °F 56.3 °F 97% 30.08 in 0.5 mi North - - N/A Fog Fog
1:35 AM 57.0 °F 56.3 °F 97% 30.08 in 0.8 mi North - - N/A   Overcast
1:55 AM 56.7 °F 56.1 °F 98% 30.08 in 1.5 mi North - - N/A   Overcast
2:15 AM 56.3 °F 55.8 °F 98% 30.08 in 4.0 mi North - - N/A   Overcast
2:35 AM 56.7 °F 55.9 °F 97% 30.08 in 10.0 mi North - - N/A   Overcast
2:55 AM 56.7 °F 55.9 °F 97% 30.08 in 10.0 mi North - - N/A   Overcast
3:15 AM 56.8 °F 56.3 °F 98% 30.07 in 10.0 mi North - - N/A   Overcast
3:35 AM 56.7 °F 56.1 °F 98% 30.07 in 10.0 mi North - - N/A   Overcast
3:55 AM 56.7 °F 56.1 °F 98% 30.06 in 10.0 mi North - - N/A   Overcast
4:15 AM 56.3 °F 55.6 °F 97% 30.05 in 10.0 mi North - - N/A   Overcast
4:35 AM 55.9 °F 55.4 °F 98% 30.06 in 10.0 mi North - - N/A   Overcast
4:55 AM 56.1 °F 55.4 °F 97% 30.06 in 10.0 mi North - - N/A   Overcast
5:15 AM 55.9 °F 55.2 °F 97% 30.06 in 10.0 mi North - - N/A   Overcast
5:40 AM 54.7 °F 53.2 °F 95% 30.05 in 10.0 mi North - - N/A   Scattered Clouds
5:55 AM 54.7 °F 53.4 °F 96% 30.05 in 10.0 mi North - - N/A   Mostly Cloudy
6:15 AM 54.3 °F 52.7 °F 94% 30.06 in 10.0 mi North - - N/A   Mostly Cloudy
6:35 AM 53.6 °F 52.3 °F 95% 30.05 in 10.0 mi North - - N/A   Clear
6:55 AM 52.9 °F 52.0 °F 97% 30.04 in 10.0 mi North - - N/A   Clear
7:15 AM 52.3 °F 51.8 °F 98% 30.04 in 10.0 mi North - - N/A   Clear
7:35 AM 51.8 °F 51.3 °F 98% 30.04 in 10.0 mi North - - N/A   Clear
7:55 AM 51.8 °F 51.3 °F 98% 30.04 in 10.0 mi North - - N/A   Clear
8:15 AM 51.8 °F 51.3 °F 98% 30.04 in 10.0 mi North - - N/A   Clear
8:35 AM 52.2 °F 51.8 °F 99% 30.05 in 10.0 mi North - - N/A   Clear
8:55 AM 52.3 °F 51.8 °F 98% 30.05 in 10.0 mi North - - N/A   Clear
9:15 AM 54.5 °F 54.0 °F 98% 30.05 in 10.0 mi North - - N/A   Clear
9:35 AM 57.4 °F 56.7 °F 97% 30.05 in 10.0 mi North - - N/A   Clear
9:55 AM 59.5 °F 57.2 °F 92% 30.04 in 10.0 mi North - - N/A   Clear
10:15 AM 62.6 °F 57.7 °F 84% 30.04 in 10.0 mi North - - N/A   Clear
10:35 AM 64.6 °F 56.8 °F 76% 30.05 in 10.0 mi North - - N/A   Clear
10:55 AM 65.8 °F 57.0 °F 73% 30.04 in 10.0 mi North - - N/A   Clear
11:15 AM 69.1 °F 57.7 °F 67% 30.04 in 10.0 mi North - - N/A   Clear
11:35 AM 70.3 °F 57.9 °F 65% 30.03 in 10.0 mi North - - N/A   Clear
11:55 AM 72.3 °F 58.3 °F 61% 30.03 in 10.0 mi North - - N/A   Clear
12:15 PM 73.6 °F 56.8 °F 56% 30.03 in 10.0 mi North - - N/A   Clear
12:35 PM 74.8 °F 56.3 °F 52% 30.02 in 10.0 mi North - - N/A   Clear
12:55 PM 76.5 °F 57.2 °F 51% 30.02 in 10.0 mi North - - N/A   Clear
1:15 PM 77.4 °F 56.1 °F 48% 30.01 in 10.0 mi North - - N/A   Clear
1:35 PM 77.9 °F 54.9 °F 45% 30.00 in 10.0 mi North - - N/A   Clear
1:55 PM 77.7 °F 55.0 °F 45% 29.99 in 10.0 mi North - - N/A   Clear
2:15 PM 79.0 °F 55.4 °F 44% 29.98 in 10.0 mi North - - N/A   Clear
2:35 PM 79.2 °F 54.7 °F 43% 29.96 in 10.0 mi North - - N/A   Clear
2:55 PM 79.0 °F 54.3 °F 42% 29.96 in 10.0 mi North - - N/A   Clear
3:15 PM 79.9 °F 54.9 °F 42% 29.95 in 10.0 mi North - - N/A   Clear
3:35 PM 79.2 °F 54.9 °F 43% 29.95 in 10.0 mi North - - N/A   Clear
3:55 PM 79.3 °F 55.6 °F 44% 29.96 in 10.0 mi North - - N/A   Clear
4:15 PM 77.4 °F 56.5 °F 48% 29.96 in 10.0 mi North - - N/A   Clear
4:35 PM 77.2 °F 56.7 °F 49% 29.96 in 10.0 mi North - - N/A   Clear
4:55 PM 76.5 °F 56.8 °F 51% 29.96 in 10.0 mi North - - N/A   Clear
5:15 PM 75.4 °F 56.5 °F 52% 29.96 in 10.0 mi North - - N/A   Clear
5:35 PM 73.9 °F 58.3 °F 58% 29.97 in 10.0 mi North - - N/A   Clear
5:55 PM 72.7 °F 58.8 °F 62% 29.97 in 10.0 mi North - - N/A   Mostly Cloudy
6:15 PM 70.5 °F 59.9 °F 69% 29.98 in 10.0 mi North - - N/A   Overcast
6:35 PM 70.0 °F 59.9 °F 70% 29.98 in 10.0 mi North - - N/A   Scattered Clouds
6:55 PM 69.4 °F 58.6 °F 68% 29.98 in 10.0 mi North - - N/A   Clear
7:15 PM 68.2 °F 58.8 °F 72% 29.98 in 10.0 mi North - - N/A   Clear
7:35 PM 67.5 °F 59.0 °F 74% 29.98 in 10.0 mi North - - N/A   Clear
7:55 PM 65.3 °F 59.4 °F 81% 29.99 in 10.0 mi North - - N/A   Clear
8:15 PM 64.0 °F 59.4 °F 85% 29.99 in 10.0 mi North - - N/A   Clear
8:35 PM 65.1 °F 58.8 °F 80% 29.99 in 10.0 mi North - - N/A   Clear
8:55 PM 65.5 °F 58.5 °F 78% 29.99 in 10.0 mi North - - N/A   Clear
9:15 PM 66.2 °F 58.3 °F 76% 30.00 in 10.0 mi North - - N/A   Clear
9:35 PM 66.9 °F 57.4 °F 71% 29.99 in 10.0 mi North - - N/A   Clear
9:55 PM 64.0 °F 59.0 °F 84% 29.99 in 10.0 mi North - - N/A   Clear
10:15 PM 62.8 °F 59.0 °F 87% 29.99 in 10.0 mi North - - N/A   Clear
10:35 PM 62.4 °F 59.0 °F 89% 29.99 in 10.0 mi North - - N/A   Clear
10:55 PM 62.2 °F 58.6 °F 88% 30.00 in 10.0 mi North - - N/A   Clear
11:15 PM 62.2 °F 58.6 °F 88% 30.00 in 10.0 mi North - - N/A   Clear
11:35 PM 61.9 °F 58.6 °F 89% 29.99 in 10.0 mi North - - N/A   Clear
11:55 PM 61.7 °F 58.6 °F 90% 29.99 in 10.0 mi North - - N/A   Scattered Clouds